Terug naar catalogus

STARLINK-31170

ActiefCommunicatieVLEO
NORAD 58801·PAYLOAD·🇺🇸 United States

Gelanceerd Jan 15, 2024 vanaf Cape Canaveral Space Force Station

Loading…

Volgende Passages (komende 24 uur)

TLE

VersSource: CelesTrak SupGP

Epoch: Sep 15, 2026, 03:03 UTC

1 58801C 24012Q   26258.12756944 -.00019532  00000+0 -70768-3 0  2582
2 58801  43.0026 175.4620 0001360 276.9431 216.9476 15.27576705    17

Volg STARLINK-31170 in realtime met AllMySat

Download on the App Store